loading
|
Showing default

VRSS-1, 38782

Orbit data source: Space-Track

VRSS-1, 38782 is a payload satellite owned by ABAE (VE) in SSO that was launched on Sat, 29 Sep 2012 UTC via a CHANG ZHENG 2D launch vehicle from the Jiuquan Satellite Launch Center, China (JSC). Payloads include a variety of satellites, spacecraft, and rockets equipped with specific instruments for various scientific and technological missions. These include communications satellites like Starlink; space stations such as the ISS; scientific satellites like the Hubble; Earth observation satellites from companies like Planet Labs, Umbra, and HawkEye 360; GPS; miniature CubeSats for education and research; and military/defense satellites.

Loading next visibility...
Loading greatness...
VRSS-1 details
Identifier
38782, 2012-052A
Orbit
SSO
Last TLE update8 hours ago
Origin
Flag of VEABAE (VE / VENZ)
ManufacturerDFH
Mission statusOperational
MissionCivil Imaging
Bus & MotorCAST-2000, AOCS
Mass880 kg wet, ~880 kg dry
Launch date (UTC)
2012-09-29 (12 years ago)
Launch vehicle
CHANG ZHENG 2D
Launch site
Jiuquan Satellite Launch Center, China (JSC)
Object type
Payload
Rocket body
Debris
Radar Cross Section2.6 m², Large (>1 m²)

Expand to show TLE details & history

TLE from 8 hours ago
0 VRSS-1
1 38782U 12052A   24261.60230957  .00003994  00000-0  55987-3 0  9997
2 38782  97.5664 262.9453 0019335 154.4981 205.7189 14.77880183645364
Epoch: 2024-09-17T14:27Z
Definitive object data (Epoch: 2024-09-17T14:27:19.546Z)
Latitude-0.00004°
Longitude49.09925°
Altitude651.278 km
Speed7.525 km/s
True Right ascension17h 31m 46s
True Declination0° 00' 00"
Sunlit
Object was in daylight at TLE epoch
Predictive object data (real-time)
Latitude-42.70597°
Longitude56.41351°
Altitude665.482 km
Speed7.516 km/s
Apparent Right ascension22h 19m 48s
Apparent Declination-67° 33' 55"
Sunlit
Object is in daylight
Predictive observer data (real-time)
Local Sidereal Time15:12:00
Azimuth150.205° SSE
Elevation-42.723°
Doppler factor1
Orbital elements
Apogee646.609 km
Perigee619.496 km
Semi-major axis7,011.189 km
Eccentricity0.0019335
Inclination97.5664°
RAAN262.9453°
Arg. of periapsis154.4981°
True anomaly205.62296°
Mean anomaly205.7189°
Eccentric anomaly205.67091°
Mean motion3.69705 °/min
BSTAR0.00055987
Period97.37 mins
No data available
Other satellites on launch #52 in the year 2012 (2012-09-29 UTC)

VRSS-1 Visibility forecast

Observer location: 39.9160978°, -105.1181434

VRSS-1 is not visible in the next 10 days
Span
Click to sort rows by Start time (UTC) header in descending order
Start Az.
Max El. time (UTC)
Max El. Az.
Max El.
End time (UTC)
End Az.